Preview of NWS' New Version of Forecast
This preview is not operational and should not be used for support decisions.
Latest weather observations around

El Dorado Captain Jack Thomas Airport (KEQA)

Using English Units (Switch to International System of Units)
Date/ Time (CDT) Wind (mph) Vis. (mi) Weather Sky Cond. Temp (°F) Rel. Humidity Wind Chill (°F) Heat Index (°F) Pressure Precip. (in)
Air Dwpt 6 hour Altimeter (inHg) Sea level (inHg) 1 hr 3 hr 6 hr
Max Min
Notice The following observation data may not be complete
Mar 26 01:15   10 Clear CLR          %              
Mar 26 00:55 SE 5 10 Clear CLR 43 41     93% 40   30.34        
Mar 26 00:35 SE 5 10 Clear CLR 41 39     93% 38   30.34        
Mar 26 00:15 SE 5 10 Clear CLR 39 36     87% 36   30.34        
Mar 25 23:55 SE 3 10 Clear CLR 43 41     93% 41   30.34        
Mar 25 23:35 SSE 3 10 Clear CLR 45 41     87% 43   30.34        
Mar 25 23:15 Calm 10 Clear CLR 45 41     87%     30.34        
Mar 25 22:55 Calm 10 Clear CLR 45 41     87%     30.33        
Mar 25 22:35 Calm 10 Clear CLR 45 41     87%     30.32        
Mar 25 22:15 ESE 5 10 Clear CLR 46 41     81% 44   30.32        
Mar 25 21:55 ESE 6 10 Partly Cloudy SCT120 46 41     81% 43   30.31        
Mar 25 21:35 ESE 6 10 Mostly Cloudy BKN120 45 41     87% 41   30.31        
Mar 25 21:15 E 7 10 Mostly Cloudy BKN120 46 43     87% 43   30.3        
Mar 25 20:55 E 6 10 Mostly Cloudy BKN120 46 43     87% 43   30.3        
Mar 25 20:35 E 8 10 Clear CLR 46 43     87% 42   30.3        
Mar 25 20:15 ENE 6 10 Clear CLR 50 43     76%     30.3        
Mar 25 19:55 ENE 7 10 Clear CLR 50 43     76%     30.29        
Mar 25 19:35 ENE 6 10 Clear CLR 52 43     71%     30.28        
Mar 25 19:15 ENE 5 10 Partly Cloudy SCT029 SCT047 54 43     67%     30.28        
Mar 25 18:55 NE 6 10 Partly Cloudy SCT031 SCT037 SCT047 55 43     62%     30.28        
Mar 25 18:35 ENE 8 10 Clear CLR 55 43     62%     30.27        
Mar 25 18:15 NE 8 10 Partly Cloudy SCT046 59 41     51%     30.27        
Mar 25 17:55 NNE 5 10 Partly Cloudy SCT046 59 41     51%     30.27        
Mar 25 17:35 N 10 10 Mostly Cloudy SCT037 BKN046 59 41     51%     30.27        
Mar 25 17:15 NNE 9 10 Cloudy BKN037 OVC044 59 41     51%     30.27        
Mar 25 16:55 NNW 7 10 Cloudy SCT037 OVC043 59 41     51%     30.27        
Mar 25 16:35 NW 7 10 Cloudy OVC036 57 43     59%     30.27        
Mar 25 16:15 NNE 8 10 Mostly Cloudy BKN036 59 41     51%     30.27        
Mar 25 15:55 N 7 10 Cloudy OVC034 57 43     59%     30.27        
Mar 25 15:35 N 10 10 Cloudy SCT025 OVC032 55 43     62%     30.27        
Mar 25 15:15 N 7 10 Cloudy BKN025 OVC030 54 43     67%     30.28        
Mar 25 14:55 NNW 7 10 Cloudy SCT023 OVC031 54 43     67%     30.29        
Mar 25 14:35 N 7 10 Cloudy SCT025 OVC031 54 43     67%     30.28        
Mar 25 14:15 N 7 10 Cloudy OVC029 54 43     67%     30.29        
Mar 25 13:55 N 8 10 Cloudy SCT022 OVC029 54 43     67%     30.29        
Mar 25 13:35 N 13 10 Cloudy SCT020 OVC029 54 43     67%     30.3        
Mar 25 13:15 NNW 9 10 Cloudy SCT018 OVC029 54 43     67%     30.3        
Mar 25 12:55 NNW 9 10 Cloudy SCT018 OVC031 54 43     67%     30.3        
Mar 25 12:35 N 11 10 Cloudy SCT018 OVC029 54 43     67%     30.3        
Mar 25 12:15 N 11 10 Cloudy SCT018 OVC027 52 43     71%     30.3        
Mar 25 11:55 N 11 10 Cloudy OVC027 52 43     71%     30.3        
Mar 25 11:35 N 10 10 Cloudy SCT016 BKN023 OVC028 52 43     71%     30.29        
Mar 25 11:15 N 9 10 Cloudy OVC023 52 43     71%     30.29        
Mar 25 10:55 N 9 10 Cloudy SCT012 OVC021 50 45     82%     30.28        
Mar 25 10:35 N 13 10 Cloudy BKN014 OVC021 50 45     82%     30.27        
Mar 25 10:15 N 13 10 Cloudy OVC012 50 45     82%     30.26        
Mar 25 09:55 N 13 10 Cloudy OVC010 50 45     82%     30.25        
Mar 25 09:35 N 15 10 Cloudy OVC010 50 45     82%     30.25        
Mar 25 09:15 N 11 10 Cloudy OVC008 50 45     82%     30.24        
Mar 25 08:55 N 10 10 Cloudy OVC008 50 45     82%     30.24        
Mar 25 08:35 N 14 10 Cloudy OVC008 50 45     82%     30.23        
Mar 25 08:15 N 9 7 Cloudy OVC008 50 45     82%     30.23        
Mar 25 07:55 NNW 9 7 Cloudy OVC008 50 45     82%     30.22        
Mar 25 07:35 N 9 10 Clear   48 45     87% 44   30.21        
Mar 25 07:15 N 10 10 Clear   48 45     87% 44   30.2        
Mar 25 06:55 N 10 10 Clear   48 45     87% 44   30.19        
Mar 25 06:35 N 10 10 Cloudy SCT009 OVC020 48 45     87% 44   30.18        
Mar 25 06:15 N 11 10 Cloudy OVC009 50 45     82%     30.18        
Mar 25 05:55 N 13 10 Cloudy OVC009 50 45     82%     30.17        
Mar 25 05:35 N 10 10 Cloudy OVC011 48 45     87% 44   30.17        
Mar 25 05:15 N 11 10 Cloudy OVC011 50 45     82%     30.16        
Mar 25 04:55 N 15 10 Cloudy BKN011 OVC016 50 45     82%     30.16        
Mar 25 04:35 N 16 10 Cloudy SCT011 BKN016 OVC030 50 45     82%     30.15        
Mar 25 04:15 N 13 10 Cloudy BKN011 OVC030 50 45     82%     30.15        
Mar 25 03:55 N 9 10 Cloudy SCT011 OVC030 50 45     82%     30.15        
Mar 25 03:35 N 8 10 Cloudy OVC030 50 45     82%     30.15        
Mar 25 03:15 N 9 10 Cloudy OVC028 50 45     82%     30.15        
Mar 25 02:55 N 10 10 Cloudy OVC030 50 46     87%     30.15        
Mar 25 02:35 N 11 10 Cloudy OVC030 50 46     87%     30.15        
Mar 25 02:15 N 13 10 Cloudy SCT013 OVC032 50 46     87%     30.14        
Mar 25 01:55 N 9 10 Cloudy OVC034 50 46     87%     30.15        
Mar 25 01:35 N 10 10 Cloudy OVC034 50 45     82%     30.15        
Mar 25 01:15 N 9 10 Mostly Cloudy BKN034 48 45     87% 44   30.15        
Mar 25 00:55 NNW 8 10 Partly Cloudy SCT036 46 45     93% 42   30.14        
Mar 25 00:35 NNW 7 10 Mostly Cloudy BKN036 48 45     87% 45   30.13        
Mar 25 00:15 NNW 8 10 Cloudy OVC036 50 45     82%     30.13        
Mar 24 23:55 NNW 8 10 Mostly Cloudy BKN036 46 45     93% 42   30.13        
Mar 24 23:35 NNW 9 10 Clear CLR 46 45     93% 42   30.12        
Mar 24 23:15 N 9 10 Clear CLR 46 43     87% 42   30.12        
Mar 24 22:55 NNW 7 10 Clear CLR 46 43     87% 43   30.12        
Mar 24 22:35 NNW 8 10 Clear CLR 46 43     87% 42   30.11        
Mar 24 22:15 NNW 6 10 Clear CLR 46 43     87% 43   30.11        
Mar 24 21:55 N 8 10 Clear CLR 50 45     82%     30.11        
Mar 24 21:35 NNW 6 10 Clear CLR 50 45     82%     30.11        
Mar 24 21:15 N 8 10 Clear CLR 50 45     82%     30.09        
Mar 24 20:55 N 8 10 Partly Cloudy SCT041 50 43     76%     30.08        
Mar 24 20:35 N 7 10 Clear CLR 52 45     76%     30.07        
Mar 24 20:15 N 7 10 Mostly Cloudy BKN041 54 45     71%     30.07        
Mar 24 19:55 N 9 10 Mostly Cloudy BKN041 55 45     67%     30.07        
Mar 24 19:35 NNW 11 10 Cloudy OVC041 57 45     63%     30.06        
Mar 24 19:15 NNW 13 10 Cloudy OVC041 59 45     59%     30.05        
Mar 24 18:55 N 13 10 Cloudy OVC041 59 43     55%     30.04        
Mar 24 18:35 NNW 14 10 Cloudy OVC041 59 43     55%     30.04        
Mar 24 18:15 NNW 11 10 Cloudy SCT033 OVC042 61 43     51%     30.03        
Mar 24 17:55 NNW 15 10 Cloudy SCT035 OVC041 61 45     55%     30.02        
Mar 24 17:35 NNW 14 10 Cloudy OVC041 61 43     51%     30.02        
Mar 24 17:15 NW 13 10 Cloudy OVC041 61 43     51%     30.01        
Mar 24 16:55 NW 11 10 Cloudy OVC041 61 43     51%     30.01        
Mar 24 16:35 NNW 10 10 Cloudy OVC040 63 43     48%     30.01        
Mar 24 16:15 NNW 13 10 Cloudy BKN038 OVC043 63 45     52%     30.01        
Mar 24 15:55 NNW 11 10 Cloudy OVC038 63 43     48%     30        
Mar 24 15:35 NNW 11 10 Cloudy OVC036 64 43     45%     30        
Mar 24 15:15 NNW 15 10 Cloudy OVC034 63 45     52%     30        
Mar 24 14:55 NW 10 10 Cloudy BKN034 OVC040 61 45     55%     30        
Mar 24 14:35 NW 13 10 Cloudy OVC032 63 45     52%     30        
Mar 24 14:15 NNW 10 7 Mostly Cloudy BKN030 BKN038 61 45     55%     30        
Mar 24 13:55 NNW 11 10 Mostly Cloudy BKN028 63 45     52%     30        
Mar 24 13:35 NW 14 10 Mostly Cloudy BKN026 61 45     55%     30.01        
Mar 24 13:15 NW 10 10 Partly Cloudy SCT026 61 45     55%     30.01        
Mar 24 12:55 NNW 11 10 Mostly Cloudy BKN024 61 45     55%     30        
Mar 24 12:35 NW 11 10 Mostly Cloudy BKN024 61 45     55%     30        
Mar 24 12:15 WNW 15 10 Partly Cloudy SCT024 59 45     59%     30        
Mar 24 11:55 NW 10 10 Partly Cloudy SCT024 59 45     59%     30.01        
Mar 24 11:35 NW 13 10 Clear CLR 57 45     63%     30.01        
Mar 24 11:15 NW 8 10 Partly Cloudy SCT017 55 45     67%     30.01        
Mar 24 10:55 WNW 13 10 Partly Cloudy SCT017 55 45     67%     30.01        
Mar 24 10:35 NNW 11 10 Partly Cloudy SCT016 54 45     71%     30        
Mar 24 10:15 NW 13 10 Clear CLR 54 45     71%     30        
Mar 24 09:55 NW 13 10 Clear CLR 52 45     76%     30        
Mar 24 09:35 NW 16 10 Clear CLR 52 45     76%     30        
Mar 24 09:15 WNW 14 10 Clear CLR 50 45     82%     30        
Mar 24 08:55 WNW 15 10 Clear CLR 50 45     82%     30        
Mar 24 08:35 W 9 10 Clear CLR 50 46     87%     29.99        
Mar 24 08:15 W 7 10 Clear CLR 50 46     87%     29.99        
Mar 24 07:55 WNW 7 10 Partly Cloudy SCT002 46 46     100% 43   29.98        
Mar 24 07:35 W 3 0.5 Fog BKN002 46 45     93% 45   29.98        
Mar 24 07:15 W 5 0.25 Fog OVC002 46 45     93% 44   29.98        
Mar 24 06:55 W 3 0.25 Fog OVC002 48 46     93% 47   29.97        
Mar 24 06:35 W 5 0.5 Fog OVC002 50 48     94%     29.97        
Mar 24 06:15 W 5 1.5 Fog/Mist OVC002 52 50     94%     29.96        
Mar 24 05:55 W 8 1.25 Fog/Mist OVC002 52 52     100%     29.97        
Mar 24 05:35 WSW 6 1 Fog/Mist OVC002 52 52     100%     29.97        
Mar 24 05:15 W 6 2 Fog/Mist OVC002 52 52     100%     29.96        
Mar 24 04:55 WSW 6 2 Fog/Mist OVC002 52 50     94%     29.96        
Mar 24 04:35 SSW 8 2.5 Fog/Mist OVC002 52 50     94%     29.96        
Mar 24 04:15 S 10 1.75 Fog/Mist OVC002 52 50     94%     29.94        
Mar 24 03:55 S 9 1.75 Fog/Mist OVC002 52 50     94%     29.95        
Mar 24 03:35 SSW 5 2 Fog/Mist OVC002 52 50     94%     29.96        
Mar 24 03:15 SW 3 2.5 Fog/Mist OVC002 52 50     94%     29.96        
Mar 24 02:55 W 7 1.75 Fog/Mist OVC002 52 50     94%     29.98        
Mar 24 02:35 W 9 3 Fog/Mist OVC002 52 50     94%     29.98        
Mar 24 02:15 SSW 8 5 Fog/Mist OVC004 52 50     94%     29.95        
Mar 24 01:55 S 10 7 Cloudy OVC004 52 50     94%     29.94        
Mar 24 01:35 S 13 10 Cloudy OVC007 52 50     94%     29.95        
Mar 24 01:15 SSE 11 10 Cloudy OVC009 54 50     88%     29.95        
Mar 24 00:55 S 11 10 Cloudy OVC009 54 50     88%     29.96        
Mar 24 00:35 S 15 10 Cloudy OVC009 54 50     88%     29.96        
Mar 24 00:15 SSE 14 10 Cloudy OVC009 54 50     88%     29.96        
Mar 23 23:55 SSE 13 10 Cloudy OVC009 54 50     88%     29.96        
Mar 23 23:35 SSE 15 10 Cloudy OVC007 54 50     88%     29.96        
Mar 23 23:15 SSE 16 7 Cloudy OVC005 52 50     94%     29.96        
Mar 23 22:55 SSE 20 10 Cloudy and Windy OVC003 54 50     88%     29.96        
Mar 23 22:35 SSE 18 7 Cloudy OVC003 54 50     88%     29.96        
Mar 23 22:15 SSE 20 7 Cloudy and Windy OVC003 54 50     88%     29.96        
Mar 23 21:55 SSE 21 7 Cloudy and Windy OVC003 54 50     88%     29.97        
Mar 23 21:35 SSE 16 7 Cloudy OVC003 54 50     88%     29.97        
Mar 23 21:15 SSE 16 7 Cloudy OVC005 52 50     94%     29.96        
Mar 23 20:55 SSE 17 7 Cloudy OVC005 52 50     94%     29.97        
Mar 23 20:35 SSE 14 10 Cloudy OVC005 52 50     94%     29.96        
Mar 23 20:15 SE 17 10 Cloudy OVC007 54 50     88%     29.96        
Mar 23 19:55 SSE 18 10 Mostly Cloudy BKN009 54 50     88%     29.96        
Mar 23 19:35 SE 20 10 Partly Cloudy and Windy SCT011 54 48     82%     29.96        
Mar 23 19:15 SE 17 10 Clear CLR 54 48     82%     29.96        
Mar 23 18:55 SE 16 10 Partly Cloudy SCT029 55 48     77%     29.95        
Mar 23 18:35 SSE 16 10 Mostly Cloudy BKN029 55 48     77%     29.96        
Mar 23 18:15 SSE 15 10 Cloudy SCT019 BKN029 OVC065 55 48     77%     29.96        
Mar 23 17:55 SSE 16 10 Cloudy BKN019 OVC027 55 48     77%     29.96        
Mar 23 17:35 SSE 16 10 Cloudy OVC019 57 48     72%     29.96        
Mar 23 17:15 SSE 16 10 Cloudy OVC019 57 48     72%     29.95        
Mar 23 16:55 SSE 17 10 Cloudy OVC021 57 48     72%     29.96        
Mar 23 16:35 S 17 10 Cloudy BKN021 BKN050 OVC070 59 48     67%     29.96        
Mar 23 15:55 S 16 10 Cloudy OVC025 59 46     63%     29.96        
Mar 23 15:35 S 17 10 Cloudy BKN025 OVC065 59 46     63%     29.96        
Mar 23 15:15 S 18 10 Cloudy BKN027 OVC065 59 46     63%     29.96        
Mar 23 14:55 S 20 10 Cloudy and Windy BKN027 OVC065 59 46     63%     29.96        
Mar 23 14:35 S 20 10 Partly Cloudy and Windy SCT027 SCT065 61 46     59%     29.97        
Mar 23 14:15 SSE 22 10 Partly Cloudy and Windy SCT090 61 46     59%     29.97        
Mar 23 13:55 S 18 10 Mostly Cloudy SCT065 BKN075 BKN090 59 46     63%     29.99        
Mar 23 13:35 S 18 10 Cloudy OVC065 59 46     63%     30        
Mar 23 13:15 S 16 10 Cloudy BKN065 OVC080 59 46     63%     29.99        
Mar 23 12:55 S 16 10 Partly Cloudy SCT065 59 46     63%     29.99        
Mar 23 12:35 S 20 10 Clear and Windy CLR 61 48     63%     29.98        
Mar 23 12:15 SSE 18 10 Clear CLR 59 46     63%     29.99        
Mar 23 11:55 SSE 21 10 Clear and Windy CLR 59 46     63%     29.99        
Mar 23 11:35 SSE 18 10 Clear   55 46     72%     29.99        
Mar 23 11:15 SSE 20 10 Clear and Windy   54 45     71%     29.99        
Mar 23 10:55 SSE 23 10 Clear and Windy   54 45     71%     29.99        
Mar 23 10:35   10 Clear CLR 54 45     71%     29.99        
Mar 23 10:15   10 Clear CLR 54 46     77%     29.98        
Mar 23 09:55 SE 22 10 Clear and Windy CLR 52 46     82%     29.97        
Mar 23 09:35 SE 22 10 Partly Cloudy and Windy SCT090 SCT110 52 45     76%     29.97        
Mar 23 09:15 SE 23 10 Cloudy and Windy SCT080 BKN100 OVC120 52 45     76%     29.97        
Mar 23 08:55 SE 15 10 Cloudy SCT038 OVC100 52 45     76%     30        
Mar 23 08:35 SSE 18 10 Cloudy BKN042 OVC110 50 45     82%     30.02        
Mar 23 08:15 SE 11 10 Mostly Cloudy BKN044 BKN050 BKN120 50 45     82%     30.03        
Mar 23 07:55 SE 11 10 Clear CLR 50 43     76%     30.02        
Mar 23 07:35 SE 14 10 Partly Cloudy SCT120 52 43     71%     29.99        
Mar 23 07:15 ESE 17 10 Partly Cloudy SCT120 52 45     76%     29.96        
Mar 23 06:55 SE 16 10 Partly Cloudy SCT120 52 45     76%     29.96        
Mar 23 06:35 SE 15 10 Partly Cloudy SCT080 SCT095 SCT110 50 45     82%     29.97        
Mar 23 06:15   7 Light Rain BKN070 OVC090 48 45     87%     29.95        
Mar 23 05:55   7 Light Rain SCT055 BKN070 OVC080 46 45     93%     30        
Mar 23 05:35 Calm 2.5 Rain SCT055 OVC070 48 45     87%     30.06        
Mar 23 05:15 E 6 7 Rain OVC065 48 45     87% 46   30.04        
Mar 23 04:55 Calm 7 Light Rain OVC065 48 45     87%     30.07        
Mar 23 04:35 Calm 10 Light Drizzle BKN075 OVC085 48 45     87%     30.07        
Mar 23 04:15 Calm 10 Cloudy SCT065 OVC085 50 45     82%     30.09        
Mar 23 03:55 WSW 6 10 Light Rain BKN065 OVC075 50 43     76%     30.1        
Mar 23 03:35 WNW 7 10 Cloudy SCT065 BKN075 OVC090 50 43     76%     30.1        
Mar 23 03:15 W 7 10 Light Rain BKN065 OVC075 52 41     67%     30.09        
Mar 23 02:55 ESE 7 10 Light Rain SCT060 OVC075 54 34     47%     30.08        
Mar 23 02:35 E 9 10 Light Rain BKN060 OVC075 54 37     54%     30.08        
Mar 23 02:15 E 7 10 Light Drizzle BKN070 OVC075 54 37     54%     30.09        
Mar 23 01:55 ESE 5 10 Cloudy SCT070 OVC090 55 32     41%     30.09        
Mar 23 01:35 ESE 6 10 Cloudy OVC090 55 32     41%     30.07        
Mar 23 01:15 ESE 9 10 Cloudy BKN090 OVC110 57 32     38%     30.05        
Mar 23 00:55 ESE 10 10 Mostly Cloudy BKN120 55 32     41%     30.05        
May 15 06:35 SW 8 10 Clear CLR 64 63     94%     29.98        
Notice The following observation data may not be complete
May 14 17:35 Calm 1.75 Light Rain SCT046 BKN065 OVC120   72      %     29.78        
May 14 09:15 SSW 14 10 Clear CLR 77 68     74%   78 29.91        
May 14 06:15 SSE 9 10 Clear CLR 72 64     78%   72 29.88        
May 14 05:55 SSE 10 10 Clear CLR 72 64     78%   72 29.88        
May 14 02:55   10 Clear CLR 73 64     73%   74 29.89        
May 13 23:35 S 13 10 Clear CLR 75 64     69%   76 29.95        
May 13 14:35   10 Clear CLR 90 68     49%   93 29.87        
May 13 11:35   10 Clear CLR 86 68     55%   89 29.95        
May 13 09:35 SSW 17 10 Clear CLR 79 66     65%   79 29.95        
May 12 22:35 S 16 10 Clear CLR 77 66     69%   78 29.92        
May 12 16:35   10 Partly Cloudy SCT050 88 64     46%   89 29.84        
May 12 14:55 S 17 10 Partly Cloudy SCT048 88 64     46%   89 29.85        
May 12 01:15 SSE 13 10 Clear CLR 72 63     73%   72 29.79        
May 11 19:35 S 14 10 Clear CLR 82 61     48%   83 29.71        
May 11 14:35 SSW 20 10 Partly Cloudy and Windy SCT050 84 61     45%   84 29.71        
May 11 10:35   10 Clear CLR 79 61     54%   79 29.73        
May 11 08:35 SSW 23 10 Clear and Windy CLR 73 61     65%   73 29.74        
Jun 12 06:15 S 13 10 Clear CLR 72 66     83%   72 29.85        
Jun 12 05:15 S 11 10 Clear CLR 72 64     78%   72 29.85        
Jun 12 02:35 S 18 10 Clear CLR 73 64     73%   74 29.84        
Notice The following observation data may not be complete
Jun 11 15:15   10 Clear CLR          %              
Jun 11 14:35   10 Clear CLR 90 66     46%   92 29.79        
Jun 11 12:55 S 25 10 Clear and Windy CLR 88 66     49%   90 29.82        
Notice The following observation data may not be complete
Jun 11 05:35   10 Clear CLR          %              
Jun 11 01:15   10 Clear CLR 75 64     69%   76 29.79        
Jun 10 15:35 S 23 10 Partly Cloudy and Windy SCT036 88 70     55%   93 29.74        
Jun 10 13:55   10 Mostly Cloudy BKN029 86 70     59%   91 29.77        
Jun 10 13:35   10 Mostly Cloudy BKN029 84 70     62%   88 29.78        
Jun 10 08:15   10 Cloudy OVC015 72 64     78%   72 29.82        
Jun 10 03:55 S 13 10 Clear CLR 68 63     83%     29.79        
Jun 10 01:55 S 16 10 Clear CLR 70 63     78%     29.8        
Jun 09 22:55 S 15 10 Clear CLR 73 63     69%   74 29.83        
Notice The following observation data may not be complete
Jun 09 11:35   10 Clear CLR          %              
Jun 09 07:35 S 3 10 Clear CLR 64 59     83%     29.92        
Jun 09 00:15 SSE 3 10 Clear   63 59     88%     29.92        
Jun 08 23:15 SSE 5 10 Clear CLR 64 57     77%     29.93        
Jun 08 19:55 SSE 5 10 Clear CLR 77 55     47%   77 29.91        
Jun 08 19:35 SE 5 10 Clear CLR 79 54     42%   78 29.91        
Jun 08 16:55 SSE 5 10 Clear CLR 81 52     37%   80 29.96        
Jun 08 12:55 SW 3 10 Clear CLR 79 52     39%   78 30.03        
Jun 08 09:15 SSE 5 10 Clear CLR 70 54     56%     30.08        
Notice The following observation data may not be complete
Jun 08 07:55 Calm 10 Clear CLR   55      %     30.08        
Notice The following observation data may not be complete
Jun 08 00:35   10 Clear CLR          %              
Jun 07 21:55 E 3 10 Clear CLR 68 54     60%     30.04        
Jun 07 12:35 NE 3 10 Clear CLR 79 52     39%   78 30.11        
Jun 06 05:35 N 3 10 Clear CLR 66 63     88%     29.96        
Jun 06 03:15 Calm 10 Clear CLR 68 64     88%     29.92        
Jun 05 14:15 NE 9 10 Partly Cloudy SCT050 88 64     46%   89 29.87